Location: Batang Balui
(2.7000°N, 113.7833°E)
Time: 23:44:29
(UTC+00:00)

Cosmos 2360 - Pass Details

Date: 03 December 2021
Orbit: 844 x 857 km, 70.8° (Epoch: 27 January)

Event Time Altitude Azimuth Distance (km) Brightness Sun altitude
Rises 11:21:21 0° 344° (NNW) 3,411 7.3 -16.4°
Reaches altitude 10° 11:23:47 10° 343° (NNW) 2,476 6.6 -17.0°
Maximum altitude 11:29:29 87° 256° (WSW) 857 4.2 -18.3°
Drops below altitude 10° 11:35:12 10° 166° (SSE) 2,476 6.7 -19.6°
Sets 11:37:38 0° 165° (SSE) 3,411 7.5 -20.2°
